{"data":{"norad_id":37193,"intl_designator":"2010-054F","name":"GLOBALSTAR M073","alt_names":[],"object_type":"PAYLOAD","status":"ACTIVE","operator":null,"country":"GLOB","launch_date":"2010-10-19","launch_site_code":"TYMSC","launch_vehicle":null,"mission":null,"orbit_class":"UNKNOWN","rcs_meters":4.6863,"size_class":null,"mass_kg":null,"dimensions":null,"purposes":["comms"],"wikipedia_slug":null,"has_3d_model":false,"image_url":null,"decayed_at":null,"tle_current":{"epoch":"2026-09-20T00:04:39.199872Z","epoch_age_seconds":61263,"freshness":"FRESH","line1":"1 37193U 10054F   26263.00323148 -.00000104  00000+0 -15549-5 0  9998","line2":"2 37193  52.0046 135.6730 0000557  88.2783  52.0337 12.62268110735903","mean_motion":12.6226811,"eccentricity":5.57e-5,"inclination_deg":52.0046,"raan_deg":135.673,"arg_perigee_deg":88.2783,"mean_anomaly_deg":52.0337,"bstar":-1.5549e-6,"rev_number":73590,"period_min":114.0803596789,"perigee_km":1413.1627000098,"apogee_km":1414.030699144,"semimajor_km":7791.7336995769,"source":"CELESTRAK","updated_at":"2026-09-20T09:00:45.037840Z"}}}